Вернуться в каталог

CZ-3B R/B

АктивенHEO
NORAD 56565·ROCKET BODY·🇨🇳 China

Запущен May 17, 2023 с Xichang Satellite Launch Center

Loading…

Ближайшие Пролёты (ближайшие 24 часа)

TLE

СвежийSource: Space-Track

Эпоха: Sep 14, 2026, 14:39 UTC

1 56565U 23066B   26257.61054081  .00621290 -15473-6  94270-3 0  9993
2 56565  28.1497 352.5179 4557756  15.9545 354.6608  6.61261490 50866

Отслеживайте CZ-3B R/B в реальном времени с AllMySat

Download on the App Store